星链-3166 (STARLINK-3166 )

导读

STARLINK-3166是美国太空探索技术公司(SpaceX)星链星座的卫星,由美国于2022年2月3日发射,属于星链卫星互联网项目。星链项目旨在构建全球卫星互联网星座,为全球提供低时延、高带宽的互联网接入服务,该卫星入轨后将参与星座组网,补充提升星座服务覆盖能力与运行稳定性。

Basic Information
目录编号:
51462
目录名称:
STARLINK-3166
国际标识:
2022-010G
轨道中心:
EARTH
卫星名称:
星链-3166
卫星全名:
星链-3166 (STARLINK-3166 )
卫星状态:
在轨 (已飞行1681 天)
发射日期:
2022-02-03 UTC
国别 :
美国 (US)
星等 :
--
This satellite is enrolled in the Space Conjunction Data Service (SCDS) and the current flight risk assessment level is: No High Risk
Orbit Information
数据来源 国际轨道数据 AOE轨道数据
星历时间 2026-09-11T10:05:17+0800
15小时前
查看轨道信息
2026-09-09T23:00:00+0800
2天前
查看轨道信息
半长轴 6848.869km 6848.873km
偏心率 0.0001421 0.0001317
轨道倾角 53.160° 53.159°
近地点辐角 91.915° 91.329°
升交点赤经 152.718° 159.525°
平近点角 268.202° 122.637°
近地点 469.758km 469.834km
远地点 471.706km 471.638km
周期 94.013分钟 94.013分钟
每日圈数 15.31703 15.317016
Detailed Information
固有亮度:
5
最大亮度:
2.5
卫星平台:
Starlink v1.5
覆盖范围:
全球
运营商:
太空探索技术公司
运营商所在国:
美国
制造商(研发单位):
太空探索技术公司
制造商所在国:
美国
使用方式:
暂无
Satellite Introduction
星链(Starlink)计划是由太空探索技术公司(SpaceX)提出的一个巨型低轨卫星互联网星座项目,计划在2019年至2024年间在太空搭建由约1.2万颗卫星组成的“星链”网络,其中1584颗将部署在地球上空550千米处的近地轨道,并从2020年开始工作。该卫星仍在工作。
2D Orbit Map
3D Orbit Map
Orbit Altitude Analysis Chart
Orbit Inclination Analysis Chart
Orbit Comprehensive Analysis Chart
View Comprehensive Chart
Conjunction Data List
Event ID Objects TCA Miss Dist (km) Collision Risk Probability Collision Risk Index (CRI) Action
CDM_260913-210705-146206-124121
OBJECT D (61241)
2026-09-13T
21:07:03+0000
0.367 km
远距离
3.598065E-4 高风险 0.86
CDM_260913-033205-146206-261322
2026-09-13T
03:32:18+0000
1.011 km
极远距离
2.596044E-5 中风险 0.63
CDM_260912-182105-146206-488322
OBJECT H (64883)
2026-09-12T
18:21:33+0000
1.167 km
极远距离
1.239604E-5 中风险 0.57
CDM_260912-105605-146206-552821
2026-09-12T
10:56:09+0000
2.845 km
极远距离
1.429543E-6 低风险 0.38
CDM_260913-233205-146206-935221
2026-09-13T
23:32:19+0000
2.949 km
极远距离
1.33726E-6 低风险 0.38
CDM_260913-061705-146206-956721
2026-09-13T
06:17:23+0000
2.935 km
极远距离
1.336382E-6 低风险 0.38
CDM_260913-203305-146206-868021
2026-09-13T
20:33:49+0000
2.897 km
极远距离
8.357214E-7 极低风险 0.33
Miss Distance Evolution Trend with All Objects
Collision Probability Evolution Trend with All Objects